Rodez, France

11:52 AM CEST on June 26, 2017 (GMT +0200)
Marcillac

Weather History for LFCR - April, 2014

Change the Weather History Date:

Thursday, April 24, 2014

  Actual Average Record
Temperature  
Mean Temperature 54 °F -  
Max Temperature 70 °F - - ()
Min Temperature 38 °F - - ()
Degree Days  
Heating Degree Days 11    
Growing Degree Days 4 (Base 50)    
Moisture  
Dew Point 45 °F    
Average Humidity 74    
Maximum Humidity 100    
Minimum Humidity 27    
Precipitation  
Precipitation 0.08 in - - ()
Sea Level Pressure  
Sea Level Pressure 30.02 in    
Wind  
Wind Speed 4 mph ()    
Max Wind Speed 14 mph    
Max Gust Speed -    
Visibility 6.1 miles    
Events Rain , Thunderstorm    
T = Trace of Precipitation, MM = Missing Value Source: Averaged Metar Reports

Daily Weather History Graph

Daily Weather History Graph

Search for Another Location

Airport or City:

Trip Planner

Search our weather history database for the weather conditions in past years. The results will help you decide how hot, cold, wet, or windy it might be!

Date:

Astronomy

Apr. 24, 2014 Rise Set
Actual Time 6:51 AM CEST 8:45 PM CEST
Civil Twilight 6:20 AM CEST 9:16 PM CEST
Nautical Twilight 5:42 AM CEST 9:54 PM CEST
Astronomical Twilight 5:01 AM CEST 10:36 PM CEST
Moon 4:05 AM CEST (4/24) 3:32 PM CEST (4/24)
Length of Visible Light 14h 56m
Length of Day
13h 53m
Waning Crescent, 27% of the Moon is Illuminated
Apr 24
Waning Crescent
Apr 29
New
May 7
First Quarter
May 14
Full
May 21
Last Quarter

Hourly Weather History & Observations

Time (CEST) Temp. Windchill Dew Point Humidity Pressure Visibility Wind Dir Wind Speed Gust Speed Precip Events Conditions
12:00 AM 52 °F - 44 °F 66% 30.16 in 34 mi NW 3.5 mph - -   Clear
12:00 AM 51.8 °F - 44.6 °F 76% 30.15 in 6.2 mi NW 3.5 mph - N/A   Unknown
12:30 AM 48.2 °F - 41.0 °F 76% 30.15 in 6.2 mi Variable 2.3 mph - N/A   Unknown
1:00 AM 46 °F - 40 °F 74% 30.19 in 28 mi SSW 3.5 mph - -   Clear
1:00 AM 46.4 °F 45.2 °F 41.0 °F 81% 30.15 in 6.2 mi SSW 3.5 mph - N/A   Unknown
1:30 AM 44.6 °F 43.1 °F 41.0 °F 87% 30.15 in 6.2 mi SW 3.5 mph - N/A   Unknown
2:00 AM 44 °F - 41 °F 83% 30.19 in 31 mi West 2.3 mph - -   Clear
2:00 AM 44.6 °F - 41.0 °F 87% 30.15 in 6.2 mi West 2.3 mph - N/A   Unknown
2:30 AM 44.6 °F - 42.8 °F 93% 30.15 in 6.2 mi WNW 2.3 mph - N/A   Unknown
3:00 AM 42 °F - 38 °F 79% 30.19 in 31 mi South 2.3 mph - -   Clear
3:00 AM 42.8 °F - 37.4 °F 81% 30.15 in 6.2 mi Variable 2.3 mph - N/A   Unknown
3:30 AM 42.8 °F 41.1 °F 39.2 °F 87% 30.12 in 6.2 mi South 3.5 mph - N/A   Unknown
4:00 AM 43 °F - 40 °F 85% 30.18 in 12 mi SSE 1.2 mph - -   Clear
4:00 AM 42.8 °F - 39.2 °F 87% 30.12 in 6.2 mi SSE 1.2 mph - N/A   Unknown
4:30 AM 41.0 °F - 39.2 °F 93% 30.12 in 6.2 mi SSW 2.3 mph - N/A   Unknown
5:00 AM 42 °F - 40 °F 88% 30.17 in 11 mi SSW 3.5 mph - -   Clear
5:00 AM 41.0 °F 39.0 °F 39.2 °F 93% 30.12 in 6.2 mi SSW 3.5 mph - N/A   Unknown
5:30 AM 41.0 °F 38.0 °F 39.2 °F 93% 30.12 in 6.2 mi WSW 4.6 mph - N/A   Unknown
6:00 AM 42 °F - 41 °F 95% 30.16 in 1 mi ESE 2.3 mph - -   Mist
6:00 AM 42.8 °F - 41.0 °F 93% 30.09 in 4.3 mi Variable 2.3 mph - N/A   Unknown
6:30 AM 39.2 °F 37.0 °F 37.4 °F 93% 30.09 in 5.0 mi South 3.5 mph - N/A   Partly Cloudy
7:00 AM 40 °F - 39 °F 95% 30.16 in 4 mi SE 4.6 mph - -   Clear
7:00 AM 41.0 °F 38.0 °F 39.2 °F 93% 30.09 in 4.3 mi SE 4.6 mph - N/A   Unknown
7:30 AM 39.2 °F - 39.2 °F 100% 30.09 in 6.2 mi South 2.3 mph - N/A   Unknown
8:00 AM 43 °F - 42 °F 92% 30.15 in 5 mi SSE 2.3 mph - -   Clear
8:00 AM 42.8 °F - 41.0 °F 93% 30.09 in 5.0 mi SSE 2.3 mph - N/A   Unknown
8:30 AM 48.2 °F - 46.4 °F 93% 30.09 in 6.2 mi Calm Calm - N/A   Unknown
9:00 AM 51 °F - 47 °F 83% 30.10 in 12 mi ESE 2.3 mph - -   Clear
9:00 AM 51.8 °F - 48.2 °F 88% 30.09 in 6.2 mi Variable 2.3 mph - N/A   Unknown
9:30 AM 53.6 °F - 46.4 °F 77% 30.09 in 6.2 mi Variable 2.3 mph - N/A   Unknown
10:00 AM 56 °F - 48 °F 67% 30.06 in 25 mi ENE 3.5 mph - -   Clear
10:00 AM 55.4 °F - 48.2 °F 77% 30.06 in 6.2 mi ENE 3.5 mph - N/A   Unknown
10:30 AM 57.2 °F - 48.2 °F 72% 30.06 in 6.2 mi East 3.5 mph - N/A   Unknown
11:00 AM 60 °F - 47 °F 52% 30.04 in 28 mi NE 3.5 mph - -   Clear
11:00 AM 59.0 °F - 46.4 °F 63% 30.06 in 6.2 mi Variable 3.5 mph - N/A   Unknown
11:30 AM 60.8 °F - 46.4 °F 59% 30.06 in 6.2 mi Variable 3.5 mph - N/A   Unknown
12:00 PM 62 °F - 47 °F 48% 30.01 in 11 mi ESE 4.6 mph - -   Clear
12:00 PM 62.6 °F - 48.2 °F 59% 30.04 in 6.2 mi ESE 4.6 mph - N/A   Unknown
12:30 PM 64.4 °F - 46.4 °F 52% 30.04 in 6.2 mi Variable 3.5 mph - N/A   Unknown
1:00 PM 64 °F - 43 °F 34% 29.97 in 11 mi ESE 4.6 mph - -   Clear
1:00 PM 64.4 °F - 42.8 °F 45% 30.01 in 6.2 mi ESE 4.6 mph - N/A   Unknown
1:30 PM 66.2 °F - 46.4 °F 49% 29.98 in 6.2 mi Variable 3.5 mph - N/A   Unknown
2:00 PM 67 °F - 43 °F 30% 29.92 in 10 mi East 4.6 mph - -   Clear
2:00 PM 66.2 °F - 42.8 °F 43% 29.98 in 6.2 mi Variable 4.6 mph - N/A   Unknown
2:30 PM 68.0 °F - 41.0 °F 37% 29.95 in 6.2 mi SSE 9.2 mph - N/A   Unknown
3:00 PM 68 °F - 42 °F 27% 29.88 in 37 mi ESE 6.9 mph - -   Clear
3:00 PM 68.0 °F - 41.0 °F 37% 29.95 in 6.2 mi ESE 6.9 mph - N/A   Unknown
3:30 PM 69.8 °F - 44.6 °F 40% 29.92 in 6.2 mi South 9.2 mph - N/A   Unknown
4:00 PM 69.8 °F - 42.8 °F 38% 29.89 in 6.2 mi SE 6.9 mph - N/A   Unknown
4:30 PM 68.0 °F - 44.6 °F 43% 29.89 in 6.2 mi SSE 6.9 mph - N/A   Unknown
5:00 PM 66.2 °F - 44.6 °F 46% 29.86 in 6.2 mi South 5.8 mph - N/A   Unknown
5:30 PM 60.8 °F - 44.6 °F 55% 29.89 in 6.2 mi Variable 3.5 mph - N/A Rain , Thunderstorm Light Thunderstorms and Rain
6:00 PM 60 °F - 48 °F 54% 29.84 in 37 mi West 9.2 mph - -   Clear
6:00 PM 59.0 °F - 48.2 °F 67% 29.86 in 6.2 mi West 9.2 mph - N/A Thunderstorm Unknown
6:30 PM 59.0 °F - 48.2 °F 67% 29.86 in 6.2 mi NW 5.8 mph - N/A   Unknown
7:00 PM 58 °F - 49 °F 65% 29.85 in 37 mi North 9.2 mph - -   Clear
7:00 PM 57.2 °F - 50.0 °F 77% 29.86 in 6.2 mi North 9.2 mph - N/A   Unknown
7:30 PM 55.4 °F - 48.2 °F 77% 29.86 in 6.2 mi NW 9.2 mph - N/A   Unknown
8:00 PM 54 °F - 50 °F 80% 29.87 in 34 mi WNW 9.2 mph - -   Clear
8:00 PM 53.6 °F - 50.0 °F 88% 29.86 in 6.2 mi WNW 9.2 mph - N/A   Mostly Cloudy
8:30 PM 53.6 °F - 50.0 °F 88% 29.86 in 6.2 mi NW 9.2 mph - N/A Rain Light Rain
9:00 PM 53 °F - 51 °F 88% 29.88 in 4 mi West 3.5 mph - - Rain Light Rain
9:00 PM 53.6 °F - 50.0 °F 88% 29.89 in 3.7 mi Variable 3.5 mph - N/A Rain Light Rain
9:30 PM 51.8 °F - 51.8 °F 100% 29.89 in - WNW 9.2 mph - N/A Rain Rain
10:00 PM 52 °F - 50 °F 92% 29.88 in 2 mi WNW 13.8 mph - - Rain Heavy Rain
10:00 PM 51.8 °F - 50.0 °F 94% 29.89 in 1.7 mi WNW 13.8 mph - N/A Rain Heavy Rain
10:30 PM 51.8 °F - 50.0 °F 94% 29.89 in - WNW 9.2 mph - N/A Rain Rain
11:00 PM 51 °F - 50 °F 94% 29.89 in 3 mi NNW 10.4 mph - - Rain Light Rain
11:00 PM 51.8 °F - 50.0 °F 94% 29.89 in 3.1 mi NNW 10.4 mph - N/A Rain Light Rain
11:30 PM 50.0 °F - 50.0 °F 100% 29.89 in 5.0 mi NW 6.9 mph - N/A Rain Light Rain